Stündliche Wetter Warszawice

Heute, 22 Oktober, Donnerstag

Zeit Temperatur Niederschläge Wind Luftdruck Luftfeuchtigkeit
00:00 +10°C° 0 mm 4 m/S 751 mmHg 77%
01:00 +10°C° 0 mm 4 m/S 751 mmHg 77%
02:00 +10°C° 0 mm 4 m/S 751 mmHg 78%
03:00 +10°C° 0 mm 4 m/S 751 mmHg 78%
04:00 +10°C° 0 mm 4 m/S 751 mmHg 78%
05:00 +11°C° 0 mm 4 m/S 751 mmHg 77%
06:00 +10°C° 0 mm 5 m/S 751 mmHg 76%
07:00 +10°C° 0 mm 5 m/S 752 mmHg 74%
08:00 +13°C° 0 mm 5 m/S 752 mmHg 68%
09:00 +15°C° 0 mm 5 m/S 752 mmHg 62%
10:00 +17°C° 0 mm 6 m/S 753 mmHg 56%
11:00 +17°C° 0 mm 6 m/S 753 mmHg 56%
12:00 +19°C° 0 mm 5 m/S 753 mmHg 56%
13:00 +20°C° 0 mm 5 m/S 753 mmHg 56%
14:00 +19°C° 0 mm 4 m/S 753 mmHg 60%
15:00 +18°C° 0 mm 4 m/S 753 mmHg 65%
16:00 +17°C° 0 mm 3 m/S 753 mmHg 70%
17:00 +16°C° 0 mm 3 m/S 753 mmHg 73%
18:00 +14°C° 0 mm 3 m/S 753 mmHg 75%
19:00 +14°C° 0 mm 3 m/S 753 mmHg 77%
20:00 +13°C° 0 mm 3 m/S 753 mmHg 78%
21:00 +13°C° 0 mm 3 m/S 753 mmHg 79%
22:00 +13°C° 0 mm 3 m/S 753 mmHg 80%
23:00 +13°C° 0 mm 3 m/S 753 mmHg 80%

Morgen, 23 Oktober, Freitag

Zeit Temperatur Niederschläge Wind Luftdruck Luftfeuchtigkeit
00:00 +12°C° 0 mm 3 m/S 753 mmHg 81%
01:00 +12°C° 0 mm 3 m/S 753 mmHg 81%
02:00 +12°C° 0 mm 3 m/S 752 mmHg 81%
03:00 +12°C° 0 mm 3 m/S 752 mmHg 82%
04:00 +12°C° 0 mm 3 m/S 752 mmHg 82%
05:00 +12°C° 0 mm 3 m/S 752 mmHg 82%
06:00 +12°C° 0 mm 4 m/S 751 mmHg 81%
07:00 +12°C° 0 mm 4 m/S 751 mmHg 81%
08:00 +13°C° 0 mm 4 m/S 751 mmHg 77%
09:00 +14°C° 0 mm 4 m/S 751 mmHg 74%
10:00 +15°C° 0 mm 4 m/S 751 mmHg 70%
11:00 +17°C° 0 mm 4 m/S 751 mmHg 69%
12:00 +18°C° 0 mm 4 m/S 751 mmHg 68%
13:00 +18°C° 0 mm 3 m/S 750 mmHg 67%
14:00 +17°C° 0 mm 3 m/S 750 mmHg 70%
15:00 +17°C° 0 mm 2 m/S 750 mmHg 73%
16:00 +16°C° 0 mm 2 m/S 750 mmHg 77%
17:00 +16°C° 0 mm 2 m/S 750 mmHg 78%
18:00 +15°C° 0 mm 2 m/S 750 mmHg 79%
19:00 +15°C° 0 mm 1 m/S 750 mmHg 80%
20:00 +15°C° 0.2 mm 1 m/S 750 mmHg 82%
21:00 +15°C° 0.2 mm 1 m/S 750 mmHg 85%
22:00 +14°C° 0.2 mm 1 m/S 750 mmHg 87%
23:00 +14°C° 0.3 mm 1 m/S 750 mmHg 87%

übermorgen, 24 Oktober, Samstag

Zeit Temperatur Niederschläge Wind Luftdruck Luftfeuchtigkeit
00:00 +14°C° 0.3 mm 1 m/S 750 mmHg 87%
01:00 +14°C° 0.3 mm 1 m/S 750 mmHg 87%
02:00 +14°C° 0.3 mm 2 m/S 750 mmHg 87%
03:00 +14°C° 0.3 mm 2 m/S 750 mmHg 87%
04:00 +13°C° 0.3 mm 3 m/S 749 mmHg 86%
05:00 +12°C° 0.8 mm 3 m/S 749 mmHg 89%
06:00 +12°C° 0.8 mm 3 m/S 749 mmHg 91%
07:00 +12°C° 0.8 mm 3 m/S 749 mmHg 93%
08:00 +12°C° 2.4 mm 3 m/S 749 mmHg 94%
09:00 +12°C° 2.4 mm 3 m/S 750 mmHg 95%
10:00 +13°C° 2.4 mm 3 m/S 750 mmHg 96%
11:00 +13°C° 0.2 mm 3 m/S 750 mmHg 92%
12:00 +14°C° 0.2 mm 3 m/S 750 mmHg 88%
13:00 +14°C° 0.2 mm 3 m/S 751 mmHg 84%
14:00 +14°C° 0 mm 3 m/S 751 mmHg 85%
15:00 +13°C° 0 mm 3 m/S 751 mmHg 85%
16:00 +14°C° 0 mm 2 m/S 751 mmHg 86%
17:00 +13°C° 0 mm 3 m/S 752 mmHg 87%
18:00 +12°C° 0 mm 3 m/S 753 mmHg 88%
19:00 +12°C° 0 mm 3 m/S 753 mmHg 89%
20:00 +11°C° 0 mm 3 m/S 754 mmHg 90%
21:00 +10°C° 0 mm 3 m/S 754 mmHg 91%
22:00 +10°C° 0 mm 2 m/S 754 mmHg 93%
23:00 +10°C° 0 mm 2 m/S 754 mmHg 93%

, 25 Oktober, Sonntag

Zeit Temperatur Niederschläge Wind Luftdruck Luftfeuchtigkeit
00:00 +9°C° 0 mm 2 m/S 754 mmHg 93%
01:00 +9°C° 0 mm 2 m/S 755 mmHg 93%
02:00 +9°C° 0 mm 2 m/S 755 mmHg 92%
03:00 +8°C° 0 mm 2 m/S 755 mmHg 92%
04:00 +8°C° 0 mm 2 m/S 755 mmHg 92%
05:00 +9°C° 0 mm 2 m/S 755 mmHg 91%
06:00 +9°C° 0 mm 2 m/S 755 mmHg 90%
07:00 +9°C° 0 mm 2 m/S 755 mmHg 89%
08:00 +10°C° 0 mm 2 m/S 755 mmHg 85%
09:00 +12°C° 0 mm 2 m/S 755 mmHg 82%
10:00 +12°C° 0 mm 3 m/S 755 mmHg 78%
11:00 +13°C° 0 mm 3 m/S 755 mmHg 74%
12:00 +14°C° 0 mm 3 m/S 755 mmHg 71%
13:00 +16°C° 0 mm 3 m/S 755 mmHg 67%
14:00 +14°C° 0 mm 3 m/S 754 mmHg 70%
15:00 +14°C° 0 mm 3 m/S 754 mmHg 73%
16:00 +14°C° 0 mm 2 m/S 754 mmHg 76%
17:00 +12°C° 0 mm 3 m/S 754 mmHg 78%
18:00 +11°C° 0 mm 3 m/S 754 mmHg 80%
19:00 +11°C° 0 mm 3 m/S 754 mmHg 82%
20:00 +10°C° 0 mm 3 m/S 754 mmHg 84%
21:00 +10°C° 0 mm 3 m/S 754 mmHg 86%
22:00 +9°C° 0 mm 3 m/S 754 mmHg 87%
23:00 +9°C° 0 mm 3 m/S 754 mmHg 88%

25 Oktober, Sonntag

Zeit Temperatur Niederschläge Wind Luftdruck Luftfeuchtigkeit
00:00 +9°C° 0 mm 2 m/S 754 mmHg 93%
01:00 +9°C° 0 mm 2 m/S 755 mmHg 93%
02:00 +9°C° 0 mm 2 m/S 755 mmHg 92%
03:00 +8°C° 0 mm 2 m/S 755 mmHg 92%
04:00 +8°C° 0 mm 2 m/S 755 mmHg 92%
05:00 +9°C° 0 mm 2 m/S 755 mmHg 91%
06:00 +9°C° 0 mm 2 m/S 755 mmHg 90%
07:00 +9°C° 0 mm 2 m/S 755 mmHg 89%
08:00 +10°C° 0 mm 2 m/S 755 mmHg 85%
09:00 +12°C° 0 mm 2 m/S 755 mmHg 82%
10:00 +12°C° 0 mm 3 m/S 755 mmHg 78%
11:00 +13°C° 0 mm 3 m/S 755 mmHg 74%
12:00 +14°C° 0 mm 3 m/S 755 mmHg 71%
13:00 +16°C° 0 mm 3 m/S 755 mmHg 67%
14:00 +14°C° 0 mm 3 m/S 754 mmHg 70%
15:00 +14°C° 0 mm 3 m/S 754 mmHg 73%
16:00 +14°C° 0 mm 2 m/S 754 mmHg 76%
17:00 +12°C° 0 mm 3 m/S 754 mmHg 78%
18:00 +11°C° 0 mm 3 m/S 754 mmHg 80%
19:00 +11°C° 0 mm 3 m/S 754 mmHg 82%
20:00 +10°C° 0 mm 3 m/S 754 mmHg 84%
21:00 +10°C° 0 mm 3 m/S 754 mmHg 86%
22:00 +9°C° 0 mm 3 m/S 754 mmHg 87%
23:00 +9°C° 0 mm 3 m/S 754 mmHg 88%

26 Oktober, Montag

Zeit Temperatur Niederschläge Wind Luftdruck Luftfeuchtigkeit
00:00 +9°C° 0 mm 3 m/S 753 mmHg 90%
01:00 +9°C° 0 mm 3 m/S 753 mmHg 91%
02:00 +9°C° 0 mm 3 m/S 753 mmHg 91%
03:00 +8°C° 0 mm 4 m/S 753 mmHg 92%
04:00 +8°C° 0 mm 4 m/S 752 mmHg 92%
05:00 +8°C° 0 mm 4 m/S 752 mmHg 92%
06:00 +7°C° 0 mm 5 m/S 752 mmHg 93%
07:00 +7°C° 0 mm 5 m/S 752 mmHg 93%
08:00 +9°C° 0 mm 5 m/S 751 mmHg 87%
09:00 +10°C° 0 mm 5 m/S 751 mmHg 82%
10:00 +13°C° 0 mm 6 m/S 751 mmHg 77%
11:00 +13°C° 0 mm 6 m/S 750 mmHg 75%
12:00 +14°C° 0 mm 6 m/S 750 mmHg 72%
13:00 +14°C° 0 mm 6 m/S 750 mmHg 70%
14:00 +14°C° 0 mm 6 m/S 749 mmHg 74%
15:00 +13°C° 0 mm 6 m/S 749 mmHg 78%
16:00 +13°C° 0 mm 5 m/S 749 mmHg 81%
17:00 +12°C° 0 mm 5 m/S 749 mmHg 83%
18:00 +12°C° 0 mm 5 m/S 749 mmHg 84%
19:00 +12°C° 0 mm 5 m/S 748 mmHg 85%
20:00 +10°C° 0 mm 5 m/S 748 mmHg 86%
21:00 +10°C° 0 mm 5 m/S 749 mmHg 87%
22:00 +10°C° 0 mm 5 m/S 749 mmHg 88%
23:00 +11°C° 0 mm 4 m/S 748 mmHg 89%

27 Oktober, Dienstag

Zeit Temperatur Niederschläge Wind Luftdruck Luftfeuchtigkeit
00:00 +11°C° 0 mm 4 m/S 748 mmHg 90%
01:00 +10°C° 0 mm 4 m/S 748 mmHg 91%
02:00 +10°C° 0 mm 4 m/S 748 mmHg 92%
03:00 +10°C° 0 mm 4 m/S 748 mmHg 92%
04:00 +10°C° 0 mm 4 m/S 748 mmHg 92%
05:00 +10°C° 0 mm 4 m/S 749 mmHg 92%
06:00 +10°C° 0 mm 4 m/S 749 mmHg 91%
07:00 +10°C° 0 mm 4 m/S 749 mmHg 91%
08:00 +12°C° 0 mm 4 m/S 749 mmHg 86%
09:00 +13°C° 0 mm 4 m/S 749 mmHg 80%
10:00 +15°C° 0 mm 5 m/S 749 mmHg 75%
11:00 +15°C° 0 mm 4 m/S 750 mmHg 73%
12:00 +17°C° 0 mm 4 m/S 750 mmHg 71%
13:00 +18°C° 0 mm 4 m/S 750 mmHg 68%
14:00 +17°C° 0 mm 4 m/S 750 mmHg 72%
15:00 +16°C° 0 mm 3 m/S 750 mmHg 76%
16:00 +14°C° 0 mm 3 m/S 750 mmHg 80%
17:00 +14°C° 0 mm 3 m/S 750 mmHg 82%
18:00 +13°C° 0 mm 3 m/S 750 mmHg 84%
19:00 +13°C° 0 mm 3 m/S 751 mmHg 86%
20:00 +12°C° 0 mm 3 m/S 751 mmHg 87%
21:00 +12°C° 0 mm 3 m/S 751 mmHg 87%
22:00 +12°C° 0 mm 3 m/S 751 mmHg 87%
23:00 +13°C° 0 mm 2 m/S 751 mmHg 88%
Mehr zeigen

Wir brauchen deine Erlaubnis

Meteoprog und unser Service Anbieter werden persönliche Daten aufbewahren, so wie Cookies, Geräte Bezeichnung oder ähnliche Technologien von deinem Gerät und Prozess, so wie Persönliche Daten Inhalte und Werbungen, genauso wie social Media und den Verkehr zu analysieren.

  • Aufbewahrung und/oder Zugang zu deiner Geräte Informationen.

    Cookies, Geräte Bezeichnung oder andere Informationen, können aufbewahrt oder Zugang zu deinem Gerät erhalten, für den Grund, der oben angegeben wird.

  • Personalisierte Werbung und Inhalte, Messungen, Einblick in das Publikum und Produkt Entwicklung.

    Werbungen und Inhalte können personalisiert werden, basierend auf ein Profil. Mehr Daten können besser personalisierte Werbungen und Inhalte hinzufügen. Werbung und Inhalte können gezeigt und gemessen werden. Einblicke über das Publikum, welche die Werbung gesehen haben und den Inhalt, können abgeleitet werden. So wie Daten können genutzt werden, um es zu verbessern oder die Benutzer Erfahrung zu verbessern das System und die Software.

Wenn du “Ich stimme zu” klickst, erlaubst du uns, die Cookies zu benutzen die Geräte Bezeichnung, den Web oder ähnliche Technologien zu benutzen. Deine Settings, können in deinem Gerät bei deinem Browser geändert werden.

Für den bestimmten Zweck, berechtigten Interessen beruhen darauf, mehr als auf den Inhalt. Du kannst mehr darüber in unseren Privaten und Cookie Politik lesen.